| time (UTC) | temp C | wind direction | speed KPH | gust KPH | rain 1hr cm | rain 24hr cm | rain mn cm | humidity % | barometer mb |
| 20260510071547 | 9 | 207 | 8.0 | 16.1 | 0.00 | 0.30 | 0.00 | 100 | 1003.8 |
| 20260510070042 | 9 | 227 | 8.0 | 19.3 | 0.00 | 0.30 | 0.00 | 100 | 1003.7 |
| 20260510064547 | 10 | 245 | 6.4 | 14.5 | 0.00 | 0.30 | 0.00 | 100 | 1003.5 |
| 20260510063038 | 10 | 233 | 6.4 | 19.3 | 0.00 | 0.30 | 0.00 | 100 | 1003.3 |
| 20260510061538 | 10 | 210 | 4.8 | 17.7 | 0.00 | 0.30 | 0.00 | 100 | 1003.3 |
| 20260510060038 | 10 | 201 | 8.0 | 17.7 | 0.00 | 0.30 | 0.00 | 100 | 1003.3 |
| 20260510054539 | 10 | 198 | 11.3 | 25.7 | 0.00 | 0.30 | 0.00 | 100 | 1003.2 |
| 20260510053041 | 10 | 219 | 11.3 | 16.1 | 0.00 | 0.30 | 0.00 | 100 | 1003.1 |
| 20260510051547 | 10 | 165 | 9.7 | 25.7 | 0.00 | 0.30 | 0.00 | 100 | 1003.1 |
| 20260510050040 | 10 | 204 | 9.7 | 20.9 | 0.00 | 0.30 | 0.00 | 100 | 1002.7 |
| 20260510044541 | 11 | 205 | 8.0 | 16.1 | 0.00 | 0.30 | 0.00 | 100 | 1002.2 |
| 20260510043044 | 11 | 262 | 8.0 | 29.0 | 0.00 | 0.30 | 0.00 | 100 | 1001.9 |
| 20260510041549 | 11 | 199 | 11.3 | 22.5 | 0.00 | 0.30 | 0.00 | 100 | 1001.9 |
| 20260510040042 | 11 | 169 | 6.4 | 20.9 | 0.08 | 0.30 | 0.00 | 100 | 1001.7 |
| 20260510034538 | 11 | 208 | 6.4 | 14.5 | 0.25 | 0.30 | 0.30 | 100 | 1001.8 |
| 20260510033038 | 11 | 200 | 6.4 | 16.1 | 0.30 | 0.30 | 0.30 | 100 | 1001.7 |
| 20260510031537 | 11 | 127 | 6.4 | 19.3 | 0.30 | 0.30 | 0.30 | 100 | 1001.6 |
| 20260510030041 | 11 | 49 | 8.0 | 19.3 | 0.23 | 0.23 | 0.23 | 27 | 1002.1 |
| 20260510024544 | 12 | 174 | 11.3 | 25.7 | 0.05 | 0.05 | 0.05 | 63 | 1001.8 |
| 20260510023038 | 13 | 122 | 6.4 | 17.7 | 0.00 | 0.00 | 0.00 | 65 | 1001.0 |
| 20260510021538 | 13 | 177 | 8.0 | 20.9 | 0.00 | 0.00 | 0.00 | 65 | 1001.0 |
| 20260510020046 | 13 | 122 | 6.4 | 16.1 | 0.00 | 0.00 | 0.00 | 65 | 1001.3 |
| 20260510014536 | 13 | 182 | 4.8 | 14.5 | 0.00 | 0.00 | 0.00 | 64 | 1001.8 |
| 20260510013036 | 13 | 108 | 4.8 | 12.9 | 0.00 | 0.00 | 0.00 | 64 | 1001.7 |
| 20260510011540 | 14 | 148 | 4.8 | 12.9 | 0.00 | 0.00 | 0.00 | 63 | 1001.8 |
| 20260510010056 | 14 | 123 | 6.4 | 16.1 | 0.00 | 0.00 | 0.00 | 62 | 1001.8 |
| 20260510004538 | 15 | 64 | 3.2 | 14.5 | 0.00 | 0.00 | 0.00 | 60 | 1001.8 |
| 20260510003038 | 15 | 79 | 4.8 | 16.1 | 0.00 | 0.00 | 0.00 | 59 | 1001.8 |
| 20260510001536 | 15 | 185 | 4.8 | 16.1 | 0.00 | 0.00 | 0.00 | 58 | 1002.3 |
| 20260510000041 | 15 | 197 | 8.0 | 20.9 | 0.00 | 0.00 | 0.00 | 57 | 1002.5 |
| 20260509234543 | 16 | 172 | 12.9 | 33.8 | 0.00 | 0.00 | 0.00 | 56 | 1002.6 |
| 20260509233039 | 16 | 169 | 9.7 | 24.1 | 0.00 | 0.00 | 0.00 | 54 | 1002.7 |
| 20260509231539 | 16 | 196 | 12.9 | 24.1 | 0.00 | 0.00 | 0.00 | 52 | 1002.6 |
| 20260509230037 | 17 | 136 | 6.4 | 27.4 | 0.00 | 0.00 | 0.00 | 48 | 1002.3 |
| 20260509224536 | 17 | 188 | 8.0 | 19.3 | 0.00 | 0.00 | 0.00 | 43 | 1002.2 |
| 20260509223036 | 17 | 150 | 8.0 | 20.9 | 0.00 | 0.00 | 0.00 | 41 | 1002.2 |
| 20260509221559 | 17 | 165 | 8.0 | 22.5 | 0.00 | 0.00 | 0.00 | 41 | 1002.1 |
| 20260509220041 | 18 | 186 | 8.0 | 24.1 | 0.00 | 0.00 | 0.00 | 39 | 1002.1 |
| 20260509214540 | 18 | 189 | 9.7 | 27.4 | 0.00 | 0.00 | 0.00 | 38 | 1002.0 |
| 20260509213037 | 18 | 167 | 9.7 | 20.9 | 0.00 | 0.00 | 0.00 | 38 | 1002.3 |
| 20260509211538 | 18 | 114 | 11.3 | 30.6 | 0.00 | 0.00 | 0.00 | 37 | 1002.4 |
| 20260509210037 | 19 | 195 | 9.7 | 20.9 | 0.00 | 0.00 | 0.00 | 33 | 1002.3 |
| 20260509204536 | 19 | 127 | 9.7 | 22.5 | 0.00 | 0.00 | 0.00 | 34 | 1002.3 |
| 20260509203044 | 20 | 274 | 11.3 | 19.3 | 0.00 | 0.00 | 0.00 | 30 | 1002.4 |
| 20260509201540 | 18 | 124 | 9.7 | 22.5 | 0.00 | 0.00 | 0.00 | 30 | 1002.4 |
| 20260509200042 | 20 | 162 | 9.7 | 32.2 | 0.00 | 0.00 | 0.00 | 28 | 1002.6 |
| 20260509194537 | 19 | 117 | 8.0 | 25.7 | 0.00 | 0.00 | 0.00 | 27 | 1003.0 |
| 20260509193044 | 18 | 162 | 12.9 | 22.5 | 0.00 | 0.00 | 0.00 | 27 | 1003.1 |
| 20260509191534 | 18 | 111 | 8.0 | 20.9 | 0.00 | 0.00 | 0.00 | 27 | 1003.1 |
| 20260509190046 | 18 | 169 | 9.7 | 22.5 | 0.00 | 0.00 | 0.00 | 27 | 1003.5 |
| 20260509184540 | 18 | 203 | 12.9 | 30.6 | 0.00 | 0.00 | 0.00 | 27 | 1003.8 |
| 20260509183042 | 18 | 158 | 11.3 | 30.6 | 0.00 | 0.00 | 0.00 | 27 | 1004.2 |
| 20260509181540 | 18 | 186 | 8.0 | 20.9 | 0.00 | 0.00 | 0.00 | 30 | 1004.3 |
| 20260509180037 | 18 | 198 | 8.0 | 17.7 | 0.00 | 0.00 | 0.00 | 31 | 1004.6 |
| 20260509174532 | 18 | 106 | 8.0 | 24.1 | 0.00 | 0.00 | 0.00 | 29 | 1004.5 |
| 20260509173051 | 18 | 141 | 11.3 | 24.1 | 0.00 | 0.00 | 0.00 | 29 | 1004.7 |
| 20260509171547 | 17 | 201 | 6.4 | 20.9 | 0.00 | 0.00 | 0.00 | 31 | 1004.9 |
| 20260509170042 | 17 | 117 | 9.7 | 20.9 | 0.00 | 0.00 | 0.00 | 31 | 1005.4 |
| 20260509164546 | 17 | 117 | 8.0 | 25.7 | 0.00 | 0.00 | 0.00 | 31 | 1005.7 |
| 20260509163047 | 17 | 105 | 8.0 | 22.5 | 0.00 | 0.00 | 0.00 | 31 | 1005.8 |
| 20260509161538 | 17 | 95 | 9.7 | 27.4 | 0.00 | 0.00 | 0.00 | 29 | 1006.2 |
| 20260509160038 | 17 | 191 | 8.0 | 17.7 | 0.00 | 0.00 | 0.00 | 32 | 1006.6 |
| 20260509154542 | 17 | 217 | 8.0 | 22.5 | 0.00 | 0.00 | 0.00 | 36 | 1006.9 |
| 20260509153039 | 15 | 78 | 1.6 | 11.3 | 0.00 | 0.00 | 0.00 | 42 | 1007.4 |
| 20260509151538 | 15 | 121 | 3.2 | 16.1 | 0.00 | 0.00 | 0.00 | 40 | 1007.7 |
| 20260509150037 | 15 | 176 | 1.6 | 19.3 | 0.00 | 0.00 | 0.00 | 42 | 1007.9 |
| 20260509144546 | 14 | 229 | 8.0 | 19.3 | 0.00 | 0.00 | 0.00 | 43 | 1008.0 |
| 20260509143039 | 12 | 183 | 3.2 | 11.3 | 0.00 | 0.00 | 0.00 | 48 | 1008.2 |
| 20260509141545 | 12 | 0 | 3.2 | 9.7 | 0.00 | 0.00 | 0.00 | 47 | 1008.3 |
| 20260509140038 | 11 | 141 | 1.6 | 9.7 | 0.00 | 0.00 | 0.00 | 48 | 1008.3 |
| 20260509134550 | 11 | 87 | 1.6 | 8.0 | 0.00 | 0.00 | 0.00 | 50 | 1008.5 |
| 20260509133041 | 10 | 140 | 1.6 | 9.7 | 0.00 | 0.00 | 0.00 | 51 | 1008.5 |
| 20260509131556 | 10 | 58 | 3.2 | 8.0 | 0.00 | 0.00 | 0.00 | 52 | 1008.7 |
| 20260509130049 | 9 | 90 | 3.2 | 8.0 | 0.00 | 0.00 | 0.00 | 52 | 1008.8 |
| 20260509124540 | 8 | 110 | 4.8 | 8.0 | 0.00 | 0.00 | 0.00 | 54 | 1008.9 |
| 20260509123048 | 7 | 125 | 3.2 | 9.7 | 0.00 | 0.00 | 0.00 | 57 | 1009.0 |
| 20260509121538 | 7 | 75 | 4.8 | 12.9 | 0.00 | 0.00 | 0.00 | 57 | 1008.9 |
| 20260509120034 | 6 | 123 | 4.8 | 11.3 | 0.00 | 0.00 | 0.00 | 58 | 1009.1 |
| 20260509114538 | 6 | 95 | 3.2 | 8.0 | 0.00 | 0.00 | 0.00 | 61 | 1009.0 |
| 20260509113038 | 5 | 94 | 3.2 | 8.0 | 0.00 | 0.00 | 0.00 | 64 | 1008.9 |
| 20260509111538 | 5 | 119 | 3.2 | 6.4 | 0.00 | 0.00 | 0.00 | 67 | 1009.0 |
| 20260509110042 | 4 | 114 | 1.6 | 6.4 | 0.00 | 0.00 | 0.00 | 68 | 1008.8 |
| 20260509104544 | 3 | 61 | 1.6 | 6.4 | 0.00 | 0.00 | 0.00 | 69 | 1008.8 |
| 20260509103034 | 2 | 72 | 0.0 | 6.4 | 0.00 | 0.00 | 0.00 | 70 | 1008.7 |
| 20260509101538 | 2 | 86 | 1.6 | 6.4 | 0.00 | 0.00 | 0.00 | 70 | 1008.7 |
| 20260509100039 | 2 | 105 | 1.6 | 6.4 | 0.00 | 0.00 | 0.00 | 70 | 1008.7 |
| 20260509094538 | 2 | 98 | 1.6 | 4.8 | 0.00 | 0.00 | 0.00 | 70 | 1008.6 |
| 20260509093038 | 3 | 84 | 1.6 | 4.8 | 0.00 | 0.00 | 0.00 | 69 | 1008.4 |
| 20260509091537 | 3 | 93 | 1.6 | 4.8 | 0.00 | 0.00 | 0.00 | 69 | 1008.5 |
| 20260509090040 | 3 | 92 | 1.6 | 4.8 | 0.00 | 0.00 | 0.00 | 69 | 1008.5 |
| 20260509084540 | 3 | 105 | 0.0 | 3.2 | 0.00 | 0.00 | 0.00 | 69 | 1008.6 |
| 20260509083044 | 3 | 0 | 0.0 | 1.6 | 0.00 | 0.00 | 0.00 | 69 | 1008.6 |
| 20260509081543 | 3 | 105 | 0.0 | 4.8 | 0.00 | 0.00 | 0.00 | 69 | 1008.6 |
| 20260509080037 | 3 | 0 | 0.0 | 4.8 | 0.00 | 0.00 | 0.00 | 69 | 1008.5 |
| 20260509074548 | 3 | 115 | 0.0 | 4.8 | 0.00 | 0.00 | 0.00 | 69 | 1008.4 |
| 20260509073039 | 3 | 146 | 1.6 | 6.4 | 0.00 | 0.00 | 0.00 | 68 | 1008.6 |